Time,TemperatureF,DewpointF,PressureIn,WindDirection,WindDirectionDegrees,WindSpeedMPH,WindSpeedGustMPH,Humidity,HourlyPrecipIn,Conditions,Clouds,dailyrainin,SoftwareType,DateUTC
2013-01-25 00:09:00,19.0,9.9,30.05,SSW,202,1.7,-999.0,67,-99.99,,,0.00,Acu-Link.com,2013-01-25 06:09:00,
2013-01-25 00:24:00,18.7,9.9,30.05,South,180,1.7,-999.0,68,-99.99,,,0.00,Acu-Link.com,2013-01-25 06:24:00,
2013-01-25 00:40:00,18.1,10.0,30.05,SSW,202,1.7,-999.0,70,-99.99,,,0.00,Acu-Link.com,2013-01-25 06:40:00,
2013-01-25 00:55:00,17.6,9.8,30.05,WSW,247,2.2,-999.0,71,-99.99,,,0.00,Acu-Link.com,2013-01-25 06:55:00,
2013-01-25 01:10:00,17.1,10.0,30.04,SSW,202,1.7,-999.0,73,-99.99,,,0.00,Acu-Link.com,2013-01-25 07:10:00,
2013-01-25 01:25:00,16.7,9.6,30.04,SW,225,0.0,-999.0,73,-99.99,,,0.00,Acu-Link.com,2013-01-25 07:25:00,
2013-01-25 01:41:00,16.2,10.0,30.03,SW,225,1.7,-999.0,76,-99.99,,,0.00,Acu-Link.com,2013-01-25 07:41:00,
2013-01-25 01:56:00,16.2,10.0,30.04,West,270,2.2,-999.0,76,-99.99,,,0.00,Acu-Link.com,2013-01-25 07:56:00,
2013-01-25 02:11:00,16.0,10.1,30.05,SW,225,2.2,-999.0,77,-99.99,,,0.00,Acu-Link.com,2013-01-25 08:11:00,
2013-01-25 02:27:00,16.3,10.1,30.06,South,180,2.2,-999.0,76,-99.99,,,0.00,Acu-Link.com,2013-01-25 08:27:00,
2013-01-25 02:42:00,16.2,10.3,30.05,SW,225,2.7,-999.0,77,-99.99,,,0.00,Acu-Link.com,2013-01-25 08:42:00,
2013-01-25 02:57:00,16.0,10.4,30.05,WSW,247,1.7,-999.0,78,-99.99,,,0.00,Acu-Link.com,2013-01-25 08:57:00,
2013-01-25 03:16:00,16.0,10.4,30.05,WSW,247,2.7,-999.0,78,-99.99,,,0.00,Acu-Link.com,2013-01-25 09:16:00,
2013-01-25 03:31:00,16.0,10.4,30.04,SW,225,2.2,-999.0,78,-99.99,,,0.00,Acu-Link.com,2013-01-25 09:31:00,
2013-01-25 04:01:00,15.3,10.8,30.04,SW,225,1.1,-999.0,82,-99.99,,,0.00,Acu-Link.com,2013-01-25 10:01:00,
2013-01-25 04:17:00,15.3,10.8,30.05,WSW,247,2.2,-999.0,82,-99.99,,,0.00,Acu-Link.com,2013-01-25 10:17:00,
2013-01-25 04:32:00,15.4,11.2,30.05,West,270,2.2,-999.0,83,-99.99,,,0.00,Acu-Link.com,2013-01-25 10:32:00,
2013-01-25 04:47:00,15.6,11.4,30.05,West,270,2.2,-999.0,83,-99.99,,,0.00,Acu-Link.com,2013-01-25 10:47:00,
2013-01-25 05:02:00,15.6,11.6,30.05,SSW,202,0.0,-999.0,84,-99.99,,,0.00,Acu-Link.com,2013-01-25 11:02:00,
2013-01-25 05:18:00,15.1,11.4,30.04,West,270,2.2,-999.0,85,-99.99,,,0.00,Acu-Link.com,2013-01-25 11:18:00,
2013-01-25 05:33:00,15.4,11.7,30.04,West,270,2.7,-999.0,85,-99.99,,,0.00,Acu-Link.com,2013-01-25 11:33:00,
2013-01-25 05:48:00,16.0,12.3,30.04,West,270,3.2,-999.0,85,-99.99,,,0.00,Acu-Link.com,2013-01-25 11:48:00,
2013-01-25 06:04:00,16.2,12.5,30.04,West,270,3.7,-999.0,85,-99.99,,,0.00,Acu-Link.com,2013-01-25 12:04:00,
2013-01-25 06:19:00,17.4,13.7,30.05,West,270,3.7,-999.0,85,-99.99,,,0.00,Acu-Link.com,2013-01-25 12:19:00,
2013-01-25 06:34:00,17.8,14.1,30.05,West,270,3.7,-999.0,85,-99.99,,,0.00,Acu-Link.com,2013-01-25 12:34:00,
2013-01-25 06:49:00,18.7,15.0,30.06,West,270,3.2,-999.0,85,-99.99,,,0.00,Acu-Link.com,2013-01-25 12:49:00,
2013-01-25 07:05:00,19.8,15.8,30.05,West,270,3.7,-999.0,84,-99.99,,,0.00,Acu-Link.com,2013-01-25 13:05:00,
2013-01-25 07:20:00,20.8,16.7,30.06,West,270,3.2,-999.0,84,-99.99,,,0.00,Acu-Link.com,2013-01-25 13:20:00,
2013-01-25 07:36:00,21.4,17.1,30.07,West,270,1.7,-999.0,83,-99.99,,,0.00,Acu-Link.com,2013-01-25 13:36:00,
2013-01-25 07:51:00,20.5,16.2,30.07,West,270,3.2,-999.0,83,-99.99,,,0.00,Acu-Link.com,2013-01-25 13:51:00,
2013-01-25 08:06:00,20.1,16.1,30.07,West,270,0.0,-999.0,84,-99.99,,,0.00,Acu-Link.com,2013-01-25 14:06:00,
2013-01-25 08:22:00,20.8,17.0,30.08,West,270,2.7,-999.0,85,-99.99,,,0.00,Acu-Link.com,2013-01-25 14:22:00,
2013-01-25 08:37:00,21.9,17.8,30.08,West,270,2.2,-999.0,84,-99.99,,,0.00,Acu-Link.com,2013-01-25 14:37:00,
2013-01-25 08:52:00,24.4,19.1,30.08,WSW,247,2.7,-999.0,80,-99.99,,,0.00,Acu-Link.com,2013-01-25 14:52:00,
2013-01-25 09:07:00,26.6,20.1,30.08,West,270,2.7,-999.0,76,-99.99,,,0.00,Acu-Link.com,2013-01-25 15:07:00,
2013-01-25 09:23:00,28.9,21.7,30.09,WNW,292,2.2,-999.0,74,-99.99,,,0.00,Acu-Link.com,2013-01-25 15:23:00,
2013-01-25 09:38:00,31.8,23.5,30.10,West,270,4.7,-999.0,71,-99.99,,,0.00,Acu-Link.com,2013-01-25 15:38:00,
2013-01-25 09:53:00,34.3,24.5,30.10,NW,315,2.7,-999.0,67,-99.99,,,0.00,Acu-Link.com,2013-01-25 15:53:00,
2013-01-25 10:09:00,37.4,26.0,30.11,WNW,292,3.2,-999.0,63,-99.99,,,0.00,Acu-Link.com,2013-01-25 16:09:00,
2013-01-25 10:24:00,39.9,26.3,30.11,West,270,3.7,-999.0,58,-99.99,,,0.00,Acu-Link.com,2013-01-25 16:24:00,
2013-01-25 10:39:00,42.1,27.1,30.13,WSW,247,3.7,-999.0,55,-99.99,,,0.00,Acu-Link.com,2013-01-25 16:39:00,
2013-01-25 10:55:00,43.0,27.1,30.13,West,270,3.2,-999.0,53,-99.99,,,0.00,Acu-Link.com,2013-01-25 16:55:00,
2013-01-25 11:10:00,42.8,26.9,30.13,WSW,247,3.7,-999.0,53,-99.99,,,0.00,Acu-Link.com,2013-01-25 17:10:00,
2013-01-25 11:25:00,44.8,27.3,30.12,NE,45,4.2,-999.0,50,-99.99,,,0.00,Acu-Link.com,2013-01-25 17:25:00,
2013-01-25 11:40:00,46.4,26.2,30.11,West,270,2.2,-999.0,45,-99.99,,,0.00,Acu-Link.com,2013-01-25 17:40:00,
2013-01-25 11:56:00,47.1,26.3,30.11,West,270,2.7,-999.0,44,-99.99,,,0.00,Acu-Link.com,2013-01-25 17:56:00,
2013-01-25 12:11:00,48.4,25.8,30.10,North,0,2.7,-999.0,41,-99.99,,,0.00,Acu-Link.com,2013-01-25 18:11:00,
2013-01-25 12:26:00,49.5,25.6,30.09,NNE,22,2.7,-999.0,39,-99.99,,,0.00,Acu-Link.com,2013-01-25 18:26:00,
2013-01-25 12:42:00,50.4,23.8,30.08,NNE,22,4.2,-999.0,35,-99.99,,,0.00,Acu-Link.com,2013-01-25 18:42:00,
2013-01-25 12:57:00,50.4,23.8,30.07,NE,45,4.7,-999.0,35,-99.99,,,0.00,Acu-Link.com,2013-01-25 18:57:00,
2013-01-25 13:12:00,50.4,23.1,30.08,ESE,112,1.7,-999.0,34,-99.99,,,0.00,Acu-Link.com,2013-01-25 19:12:00,
2013-01-25 13:28:00,50.9,22.8,30.07,ENE,67,2.7,-999.0,33,-99.99,,,0.00,Acu-Link.com,2013-01-25 19:28:00,
2013-01-25 13:43:00,52.3,22.6,30.07,South,180,2.2,-999.0,31,-99.99,,,0.00,Acu-Link.com,2013-01-25 19:43:00,
2013-01-25 13:58:00,52.5,22.8,30.06,West,270,4.2,-999.0,31,-99.99,,,0.00,Acu-Link.com,2013-01-25 19:58:00,
2013-01-25 14:13:00,51.6,23.5,30.06,West,270,1.7,-999.0,33,-99.99,,,0.00,Acu-Link.com,2013-01-25 20:13:00,
2013-01-25 14:29:00,53.4,25.0,30.06,South,180,4.2,-999.0,33,-99.99,,,0.00,Acu-Link.com,2013-01-25 20:29:00,
2013-01-25 14:44:00,53.1,25.5,30.06,SSW,202,5.8,-999.0,34,-99.99,,,0.00,Acu-Link.com,2013-01-25 20:44:00,
2013-01-25 14:59:00,53.2,25.6,30.06,SSW,202,3.7,-999.0,34,-99.99,,,0.00,Acu-Link.com,2013-01-25 20:59:00,
2013-01-25 15:15:00,52.2,26.1,30.06,SSW,202,7.8,-999.0,36,-99.99,,,0.00,Acu-Link.com,2013-01-25 21:15:00,
2013-01-25 15:30:00,51.8,26.4,30.06,SSW,202,5.8,-999.0,37,-99.99,,,0.00,Acu-Link.com,2013-01-25 21:30:00,
2013-01-25 15:45:00,50.5,28.8,30.06,South,180,4.7,-999.0,43,-99.99,,,0.00,Acu-Link.com,2013-01-25 21:45:00,
2013-01-25 16:01:00,49.1,30.3,30.06,SSE,157,4.2,-999.0,48,-99.99,,,0.00,Acu-Link.com,2013-01-25 22:01:00,
2013-01-25 16:16:00,49.3,30.5,30.06,South,180,3.2,-999.0,48,-99.99,,,0.00,Acu-Link.com,2013-01-25 22:16:00,
2013-01-25 16:31:00,48.7,30.4,30.06,South,180,3.7,-999.0,49,-99.99,,,0.00,Acu-Link.com,2013-01-25 22:31:00,
2013-01-25 16:46:00,47.1,29.9,30.06,SW,225,3.7,-999.0,51,-99.99,,,0.00,Acu-Link.com,2013-01-25 22:46:00,
2013-01-25 17:02:00,44.8,29.6,30.06,SSW,202,4.2,-999.0,55,-99.99,,,0.00,Acu-Link.com,2013-01-25 23:02:00,
2013-01-25 17:17:00,43.0,29.2,30.05,SSW,202,2.7,-999.0,58,-99.99,,,0.00,Acu-Link.com,2013-01-25 23:17:00,
2013-01-25 17:32:00,41.4,29.0,30.05,SW,225,1.7,-999.0,61,-99.99,,,0.00,Acu-Link.com,2013-01-25 23:32:00,
2013-01-25 17:48:00,39.6,28.4,30.05,SSW,202,2.2,-999.0,64,-99.99,,,0.00,Acu-Link.com,2013-01-25 23:48:00,
2013-01-25 18:03:00,38.3,28.0,30.05,South,180,2.2,-999.0,66,-99.99,,,0.00,Acu-Link.com,2013-01-26 00:03:00,
2013-01-25 18:18:00,37.8,28.2,30.05,South,180,2.7,-999.0,68,-99.99,,,0.00,Acu-Link.com,2013-01-26 00:18:00,
2013-01-25 18:34:00,36.9,27.7,30.06,SSW,202,2.2,-999.0,69,-99.99,,,0.00,Acu-Link.com,2013-01-26 00:34:00,
2013-01-25 18:49:00,35.6,27.5,30.06,SSW,202,1.1,-999.0,72,-99.99,,,0.00,Acu-Link.com,2013-01-26 00:49:00,
2013-01-25 19:04:00,34.7,26.9,30.07,SSE,157,0.0,-999.0,73,-99.99,,,0.00,Acu-Link.com,2013-01-26 01:04:00,
2013-01-25 19:20:00,34.5,27.1,30.07,SSW,202,2.2,-999.0,74,-99.99,,,0.00,Acu-Link.com,2013-01-26 01:20:00,
2013-01-25 19:35:00,34.5,27.4,30.08,SSW,202,1.7,-999.0,75,-99.99,,,0.00,Acu-Link.com,2013-01-26 01:35:00,
2013-01-25 19:50:00,34.3,27.2,30.08,South,180,2.7,-999.0,75,-99.99,,,0.00,Acu-Link.com,2013-01-26 01:50:00,
2013-01-25 20:05:00,33.6,26.9,30.08,SSW,202,0.0,-999.0,76,-99.99,,,0.00,Acu-Link.com,2013-01-26 02:05:00,
2013-01-25 20:21:00,32.2,26.1,30.07,South,180,0.0,-999.0,78,-99.99,,,0.00,Acu-Link.com,2013-01-26 02:21:00,
2013-01-25 20:36:00,31.3,25.9,30.07,SSW,202,0.0,-999.0,80,-99.99,,,0.00,Acu-Link.com,2013-01-26 02:36:00,
2013-01-25 20:51:00,30.7,25.9,30.07,SSE,157,0.0,-999.0,82,-99.99,,,0.00,Acu-Link.com,2013-01-26 02:51:00,
2013-01-25 21:07:00,30.2,25.4,30.07,South,180,0.0,-999.0,82,-99.99,,,0.00,Acu-Link.com,2013-01-26 03:07:00,
2013-01-25 21:22:00,30.2,25.4,30.07,South,180,1.1,-999.0,82,-99.99,,,0.00,Acu-Link.com,2013-01-26 03:22:00,
2013-01-25 21:37:00,30.2,25.4,30.07,SSW,202,0.0,-999.0,82,-99.99,,,0.00,Acu-Link.com,2013-01-26 03:37:00,
2013-01-25 21:53:00,29.3,24.8,30.07,ESE,112,0.0,-999.0,83,-99.99,,,0.00,Acu-Link.com,2013-01-26 03:53:00,
2013-01-25 22:08:00,30.4,25.6,30.08,SW,225,0.0,-999.0,82,-99.99,,,0.00,Acu-Link.com,2013-01-26 04:08:00,
2013-01-25 22:23:00,31.1,25.7,30.08,WSW,247,1.1,-999.0,80,-99.99,,,0.00,Acu-Link.com,2013-01-26 04:23:00,
2013-01-25 22:38:00,34.7,26.9,30.08,SSW,202,2.2,-999.0,73,-99.99,,,0.00,Acu-Link.com,2013-01-26 04:38:00,
2013-01-25 22:54:00,35.8,27.3,30.08,South,180,3.7,-999.0,71,-99.99,,,0.00,Acu-Link.com,2013-01-26 04:54:00,
2013-01-25 23:09:00,34.7,26.6,30.08,SE,135,0.0,-999.0,72,-99.99,,,0.00,Acu-Link.com,2013-01-26 05:09:00,
2013-01-25 23:24:00,33.1,26.1,30.09,SSW,202,0.0,-999.0,75,-99.99,,,0.00,Acu-Link.com,2013-01-26 05:24:00,
2013-01-25 23:40:00,32.7,25.7,30.09,NNE,22,2.7,-999.0,75,-99.99,,,0.00,Acu-Link.com,2013-01-26 05:40:00,
2013-01-25 23:55:00,30.2,24.2,30.09,NNE,22,3.2,-999.0,78,-99.99,,,0.00,Acu-Link.com,2013-01-26 05:55:00,